AEROCUBE 7

Last updated on Sun Dec 14 2025 00:03:49 GMT+0000 (Coordinated Universal Time)

1 40966U 15058C 25347.05580593 .00008646 00000+0 70102-3 0 9996 2 40966 64.7629 107.0690 0128046 135.6475 225.4984 14.93976530338135
UTC large
Height (km)
Speed (km/s)
/
Latitude / Longitude
Inclination (degrees)
Orbital Period (minutes)
Azimuth
Elevation
Range (km)
Doppler Factor

Next 0 passes for location: London (51.5072 / 0.1276)

Sorry there are no passes over London.